Wind_Speed
21 22 23 23 23 24 25 27 28 29 31 33 36 38 40 41 43 45 46 47 45 38 31 27 25 24 20 17 16 17 18 19 20 20 20 20 20 20 20 18 16 15 15 14 14 17 21 22 20 16 15 15 14 12 11 10 6 3 2 3 4 6 7 6 5 5 5 5 5 6 5 3 2 5 8 9 9 9 9 10 11 12 12 12 13 13 12 13
20 21 23 24 24 24 25 26 27 28 30 32 34 36 38 40 41 43 45 46 45 39 31 27 24 23 21 17 15 15 16 17 17 18 18 18 19 19 19 18 15 13 12 13 13 15 18 19 17 13 13 13 12 11 9 6 4 2 3 3 3 4 5 6 7 6 7 7 7 8 8 7 7 7 8 9 10 10 11 12 12 13 13 14 15 15 16 18
20 20 22 23 24 24 24 25 26 27 29 30 32 34 37 38 39 41 43 44 44 40 32 27 24 21 20 17 15 12 12 13 13 13 13 15 16 16 16 16 15 12 10 10 11 12 13 15 13 11 10 9 10 11 6 3 2 2 3 4 5 5 5 7 9 9 10 10 10 10 11 11 11 11 12 12 13 13 13 13 13 14 15 16 17 18 20 21
20 20 21 22 23 23 24 25 25 26 27 29 31 33 35 37 38 39 41 42 43 41 34 28 24 21 19 17 15 12 10 10 9 9 9 10 12 13 13 14 13 11 9 8 8 9 10 11 10 7 7 5 7 10 6 3 3 5 6 6 6 7 7 8 10 11 11 12 13 13 13 13 13 14 15 16 16 17 17 17 17 17 17 18 19 20 22 23
20 20 20 21 22 23 23 24 24 25 26 28 29 31 33 35 37 38 39 40 41 42 37 29 25 22 19 17 15 13 11 9 8 8 7 7 9 10 11 11 10 10 9 7 6 7 7 8 7 5 6 5 6 9 9 9 8 8 9 10 10 10 10 11 12 12 13 13 14 14 14 14 14 15 16 17 18 19 20 20 20 20 20 20 21 22 23 24
19 19 19 20 21 21 22 23 23 24 25 26 28 30 32 33 36 37 38 39 39 41 39 32 26 23 20 18 15 13 11 9 8 8 7 7 8 8 9 9 9 8 7 7 6 5 4 4 5 5 7 7 7 9 11 12 12 13 13 14 14 13 13 13 13 14 15 16 16 16 16 16 16 17 18 18 19 20 21 21 21 21 21 21 21 22 22 23
18 19 19 19 20 20 21 22 22 23 24 25 27 28 30 32 34 36 37 38 38 39 40 37 30 25 23 21 18 16 13 10 7 6 6 7 8 8 8 9 8 7 6 5 5 4 4 2 2 4 6 8 8 9 11 12 14 15 15 15 14 15 15 15 15 15 16 17 19 19 20 20 21 20 20 19 19 20 21 21 21 21 21 21 21 21 22 22
18 19 19 19 19 19 20 20 21 22 23 24 25 27 29 30 32 34 35 36 37 38 40 39 34 28 25 24 22 18 15 12 8 6 6 7 8 9 9 8 7 6 5 5 4 4 3 2 1 3 5 7 8 8 10 11 12 13 13 13 14 14 14 14 14 15 16 17 19 20 21 22 22 21 20 19 19 20 20 21 21 20 20 20 21 22 23 22
18 18 19 19 18 18 18 19 19 20 22 23 24 25 27 29 31 32 34 34 35 36 38 39 37 31 25 24 23 19 17 16 12 9 8 9 10 10 9 8 7 5 5 4 4 4 3 1 1 2 2 4 5 6 7 8 9 10 11 11 12 12 12 11 11 11 12 13 14 15 16 17 17 17 18 19 19 19 20 20 21 20 21 21 22 22 21 21
19 18 19 19 18 18 17 18 18 19 21 22 23 24 25 27 29 30 32 33 34 35 36 37 38 34 27 23 21 19 17 16 15 13 13 13 12 12 10 9 7 6 5 3 3 3 3 3 4 3 1 0 2 4 5 7 9 9 9 10 9 9 9 9 8 8 8 8 9 10 11 12 13 14 15 16 17 18 18 19 19 19 19 19 19 18 18 18
21 20 19 19 18 18 17 17 17 18 19 21 21 22 23 25 27 29 30 31 32 33 34 35 37 36 31 24 20 18 16 14 15 17 16 15 14 12 10 9 8 8 7 6 5 4 4 5 5 3 2 2 3 4 6 7 8 7 7 6 6 5 4 4 4 4 4 5 6 7 7 8 9 9 10 11 12 14 15 16 16 16 16 16 15 13 13 12
23 21 20 19 19 18 17 17 16 16 17 19 20 21 22 23 25 27 28 29 30 31 32 33 35 36 34 28 22 18 15 14 15 17 17 16 14 13 11 10 9 8 8 7 6 5 5 6 5 3 3 4 5 5 5 5 4 4 3 3 3 4 3 2 2 2 2 2 3 4 3 3 4 4 4 6 8 10 12 12 11 11 12 12 10 8 7 6
24 23 21 20 19 19 18 17 16 16 16 18 19 20 20 22 23 25 26 27 28 29 30 31 32 34 34 31 25 19 14 12 14 14 13 13 13 12 11 9 8 7 7 7 6 5 6 6 5 4 5 6 7 7 9 9 9 9 9 9 8 7 5 4 4 3 2 2 2 2 2 3 2 2 2 4 6 7 7 7 6 5 6 6 4 3 3 4
25 25 23 21 20 19 19 18 17 16 15 16 17 19 19 20 22 23 25 26 26 28 28 28 29 31 32 32 29 23 17 13 13 12 11 10 10 10 9 7 6 7 8 7 7 6 7 8 7 6 8 9 10 12 13 12 12 13 12 12 11 9 6 5 5 5 5 6 5 4 3 2 1 1 0 1 2 3 3 3 3 3 4 4 4 4 4 5
26 26 25 23 21 20 20 19 18 17 15 15 16 17 18 19 20 22 24 25 25 26 27 27 27 28 29 30 30 27 22 17 14 11 10 9 8 8 7 6 5 5 8 8 7 7 9 9 9 10 11 11 11 12 13 13 13 14 14 15 14 12 10 8 8 9 10 10 10 10 8 7 6 5 5 4 5 5 6 6 7 7 8 7 7 6 6 7
28 27 27 25 23 21 21 20 19 18 16 14 14 16 17 18 19 21 22 24 24 24 25 26 26 27 28 28 29 28 26 22 17 12 10 9 8 7 7 6 5 4 6 7 7 7 8 10 11 12 12 11 11 11 12 12 13 13 15 15 15 15 15 12 11 12 13 13 13 12 11 10 9 9 9 9 10 9 9 9 9 9 9 9 8 8 7 8
30 29 28 27 25 23 22 21 20 19 17 14 14 15 16 17 18 19 20 22 23 22 23 24 25 25 26 27 28 28 27 25 22 17 13 9 7 5 5 5 4 4 6 7 8 7 8 9 10 11 11 11 11 11 11 11 11 11 13 14 14 16 17 16 14 14 14 14 14 14 12 11 10 10 11 11 11 10 9 9 8 9 9 9 9 8 8 9
31 30 29 29 28 26 24 23 21 20 19 16 14 14 15 16 16 17 18 20 21 22 21 22 23 24 25 26 26 27 27 26 24 21 16 11 7 5 4 4 4 5 6 6 7 7 7 6 7 10 11 11 11 11 12 12 12 11 12 13 14 14 15 17 16 15 16 15 15 14 13 12 11 10 10 11 11 10 10 9 9 9 9 9 9 8 9 10
33 32 31 30 30 29 27 25 23 21 20 17 15 14 14 15 15 16 17 18 19 21 21 20 22 22 23 24 24 25 25 25 25 23 19 13 10 8 5 3 3 5 6 6 7 7 6 5 8 10 10 9 8 9 11 12 12 11 11 13 14 14 13 14 15 15 15 15 13 12 12 11 10 10 10 11 11 10 10 9 8 9 9 9 9 9 10 11
34 34 33 32 31 31 30 28 25 22 21 19 16 15 15 15 14 15 16 16 17 19 20 19 20 21 21 21 22 23 24 24 24 24 22 17 13 9 6 3 3 5 6 6 6 7 6 5 8 10 10 10 8 8 9 10 10 10 10 12 13 13 13 12 11 12 13 13 12 10 9 9 9 10 11 11 10 8 7 7 7 8 8 9 9 10 11 12
37 36 35 34 33 33 32 31 27 24 23 21 18 16 16 15 14 14 15 15 16 17 18 18 18 19 20 20 20 20 22 23 23 24 23 21 16 12 9 6 4 5 5 5 5 5 5 5 7 9 10 11 10 9 9 9 9 8 9 10 11 11 12 11 10 9 9 10 10 9 8 7 8 9 10 10 10 8 7 6 6 7 8 9 10 11 13 15
40 39 37 35 35 35 34 33 30 27 25 23 20 19 18 16 14 14 14 15 15 15 16 17 17 18 18 19 19 19 20 21 21 23 24 22 18 15 13 10 7 6 6 5 4 4 3 4 6 8 9 10 10 10 9 8 8 8 8 9 11 11 10 10 9 8 8 8 9 9 8 7 6 7 8 9 10 10 9 7 7 7 9 11 13 15 17 19
42 41 40 38 36 37 37 35 33 29 27 25 23 22 20 17 15 14 14 14 14 14 15 16 16 16 17 18 18 17 17 19 20 22 23 22 19 17 16 14 10 9 8 7 5 4 3 4 6 7 8 9 9 9 8 7 7 7 7 8 11 11 9 9 9 8 8 9 9 8 7 6 6 6 7 7 8 9 9 9 8 10 12 15 17 19 21 22
44 42 42 41 39 38 39 37 35 32 29 28 26 24 22 19 16 15 15 14 14 14 14 15 16 15 15 17 17 16 16 17 19 20 21 21 20 19 18 16 14 12 11 9 7 6 4 4 5 7 7 8 8 7 7 6 6 7 7 8 10 10 9 8 8 8 9 9 9 8 6 6 5 6 6 6 7 9 10 11 12 15 17 18 20 22 24 26
47 44 43 43 42 40 40 39 37 34 32 30 29 27 24 21 18 17 16 15 15 14 13 14 15 15 15 16 17 17 15 15 17 19 19 19 19 19 19 18 15 14 12 10 9 8 6 5 6 7 7 8 7 7 7 6 6 8 9 9 9 9 9 8 9 9 9 10 10 9 8 7 6 6 7 9 11 13 14 15 18 18 19 20 22 24 27 29
51 48 44 43 44 43 41 41 39 37 35 33 32 30 27 24 21 19 17 16 15 14 13 13 14 15 15 15 15 16 15 14 15 17 17 17 18 18 18 18 17 15 14 14 13 12 10 9 10 11 10 12 11 10 10 10 11 13 12 11 11 12 11 11 12 12 12 12 13 13 13 12 11 12 13 15 17 18 19 20 20 19 21 23 25 27 29 31
53 52 48 44 45 45 44 42 40 38 37 36 35 33 29 26 24 22 19 17 16 16 14 13 13 14 14 14 14 15 15 13 12 14 15 16 16 17 17 18 17 16 16 16 17 17 15 14 15 16 17 18 17 16 16 16 18 18 16 16 17 18 18 18 18 18 18 18 18 18 19 19 19 20 21 22 23 23 22 21 20 22 25 27 27 28 29 31
55 54 53 48 46 47 46 45 42 40 39 38 38 35 31 29 26 24 21 19 18 17 15 14 13 13 14 14 13 14 14 13 10 11 13 14 14 15 16 17 17 17 17 18 19 20 19 18 18 20 21 21 21 20 20 21 23 22 21 21 22 23 23 23 24 24 23 23 23 23 23 24 24 25 26 26 25 24 22 22 23 25 28 28 28 28 29 30
59 57 56 53 49 47 47 47 45 42 41 40 40 38 34 32 29 26 24 22 20 18 17 15 14 14 14 14 13 13 13 12 10 9 10 12 13 14 15 16 16 16 17 18 19 20 20 19 19 21 23 23 22 21 21 24 27 26 24 24 24 24 24 25 26 26 27 27 27 27 27 27 27 28 28 26 24 22 22 23 24 25 27 27 28 28 29 30
62 60 58 57 53 49 47 48 47 45 43 42 41 40 37 35 32 29 28 25 22 20 18 16 15 14 14 14 13 13 13 13 10 7 7 10 11 12 13 14 15 15 16 18 18 20 20 19 19 21 22 23 23 21 21 24 26 26 24 25 25 25 26 26 27 28 30 31 31 31 30 29 28 27 26 24 23 23 23 22 23 24 25 26 27 28 29 29
65 63 61 59 57 53 50 49 49 48 46 44 42 41 40 38 35 33 31 28 24 22 20 17 16 14 13 14 14 13 13 12 11 7 5 6 8 10 12 13 13 14 15 16 17 18 19 18 19 20 21 23 22 20 20 22 23 23 22 24 25 26 26 26 27 28 30 31 31 31 31 31 30 29 27 25 23 23 22 21 22 23 24 25 26 27 28 29
67 66 64 62 60 58 54 51 49 49 48 47 44 42 42 39 38 37 34 30 27 24 21 19 18 16 15 15 15 13 13 12 11 8 4 4 6 7 9 10 11 12 13 14 15 17 17 16 17 18 19 20 20 19 19 19 20 21 20 21 23 24 24 24 24 25 26 27 28 28 29 30 30 29 27 25 23 21 21 21 22 22 23 24 25 27 29 30
68 68 67 64 61 60 58 55 52 49 49 49 46 44 42 40 41 40 36 32 29 26 23 22 21 19 18 18 17 15 14 13 12 9 5 3 4 5 6 7 9 9 11 12 13 14 14 13 14 15 16 17 17 17 17 17 18 19 19 19 20 21 21 21 21 22 22 23 24 24 25 26 27 27 26 25 24 23 22 22 22 22 24 25 26 27 29 30
70 70 69 67 64 62 62 60 56 51 50 50 49 47 43 43 45 42 37 34 31 28 27 25 24 22 21 21 18 16 15 13 12 10 6 4 4 4 4 4 6 7 8 9 10 11 11 10 10 11 12 13 14 15 15 15 16 16 17 17 18 18 19 19 19 19 20 20 21 23 23 24 24 25 25 24 23 23 22 22 22 23 24 26 27 28 29 30
72 72 72 70 66 65 65 64 60 56 52 50 51 48 45 48 48 42 37 35 32 31 30 28 26 24 23 23 20 18 17 15 13 11 8 6 6 5 4 3 3 4 4 6 7 8 8 8 8 8 9 10 11 13 13 13 13 14 14 15 16 16 16 16 16 16 17 18 19 21 22 22 22 22 21 21 20 19 19 20 21 23 24 26 27 27 28 29
74 73 74 72 69 68 67 65 63 61 56 52 50 49 50 52 50 43 39 37 35 34 32 30 29 26 25 24 21 18 17 16 15 13 10 9 8 7 6 5 3 2 2 2 4 5 6 6 6 7 7 8 9 11 12 12 12 12 12 12 13 13 14 14 13 13 14 15 17 18 19 19 18 17 17 18 17 17 18 19 20 21 22 24 25 26 27 28
77 75 75 75 72 70 69 67 66 64 60 56 51 50 54 56 51 46 42 39 37 36 34 32 31 28 27 26 23 20 18 17 17 16 13 11 11 10 9 7 6 5 4 3 1 2 3 4 4 6 6 7 7 8 10 11 11 11 11 11 10 11 12 12 12 11 11 12 13 14 14 15 14 15 16 17 17 18 19 20 21 21 21 22 24 26 27 28
82 78 76 76 75 73 71 69 68 66 63 59 54 52 54 57 54 49 45 42 39 37 36 34 32 30 29 28 25 22 19 18 19 18 15 14 13 12 10 10 9 8 7 6 4 1 1 1 2 3 4 5 6 6 7 8 9 10 9 9 9 9 9 10 10 11 11 10 10 9 10 12 12 14 16 17 18 19 20 21 22 22 23 23 25 26 28 30
85 82 79 78 78 76 73 70 69 68 66 62 58 55 54 56 56 52 47 44 41 39 38 36 34 32 31 30 28 25 22 21 20 20 18 16 15 14 13 12 13 11 10 8 7 5 4 2 1 1 1 3 4 5 5 6 7 8 8 7 7 7 8 9 9 10 11 10 9 9 10 11 12 14 16 16 17 18 20 21 22 24 25 26 27 28 30 31
89 86 82 81 80 79 76 73 71 69 68 65 62 60 57 56 56 53 50 47 44 41 40 38 36 34 33 32 30 28 25 23 22 22 21 19 16 15 16 15 15 15 12 10 10 9 7 6 5 4 4 3 2 2 3 4 4 5 5 5 5 7 8 8 8 9 10 9 9 10 12 13 13 15 16 17 17 18 19 20 22 23 25 26 27 28 29 31
91 89 86 84 82 81 78 75 73 70 69 68 66 64 62 59 57 55 53 49 46 44 42 41 39 37 35 34 32 30 27 25 24 24 23 22 19 17 18 17 17 17 15 13 12 12 10 9 8 8 7 5 3 2 1 0 1 2 3 3 3 5 7 8 8 8 9 9 9 11 12 14 14 16 17 18 18 18 19 20 21 22 24 24 25 26 27 28
93 92 90 88 85 84 81 78 75 72 70 70 69 67 65 62 59 57 55 52 49 47 45 44 42 39 38 36 34 31 30 27 26 26 25 23 21 20 19 18 18 19 17 15 14 13 12 11 10 10 9 7 6 5 4 3 2 1 1 2 3 4 5 6 7 7 8 8 8 10 11 12 13 15 16 17 17 17 17 19 20 21 22 22 23 24 25 26
95 94 94 92 88 85 83 81 78 75 73 72 71 70 68 65 62 60 57 54 51 49 48 46 44 42 41 39 35 33 33 31 29 29 28 26 24 22 20 19 19 19 18 17 17 15 13 12 12 11 10 9 9 8 6 4 3 3 3 4 4 4 4 5 5 6 7 8 8 9 10 10 11 12 13 14 15 15 16 17 18 19 20 20 21 23 24 25
97 97 97 95 91 87 85 83 81 78 76 74 73 72 70 67 65 62 59 56 54 52 51 49 47 46 44 41 37 36 35 34 32 31 30 28 27 23 21 20 21 21 20 19 18 17 15 14 14 13 12 12 11 10 7 6 5 3 2 2 2 2 3 3 4 5 6 7 7 7 7 8 9 10 10 11 12 13 14 15 16 17 18 18 20 21 22 23
98 99 99 98 94 90 87 86 84 81 79 76 74 73 72 70 68 65 61 59 57 56 54 52 50 48 46 43 40 38 38 36 34 32 31 31 29 25 23 23 23 22 21 19 19 19 18 17 16 15 14 14 13 11 9 7 6 4 3 3 3 2 2 1 1 1 3 5 6 6 6 6 7 8 9 10 11 12 12 13 15 16 17 18 18 19 20 21
98 100 101 100 97 94 90 88 87 85 82 78 75 74 73 72 71 68 64 62 60 59 57 54 51 49 48 46 43 41 40 38 36 34 33 33 31 28 27 26 24 22 21 20 20 20 21 20 18 17 16 16 15 13 11 10 9 7 6 6 6 6 5 4 3 2 1 3 4 5 6 6 7 8 9 9 10 11 12 13 14 15 16 17 18 19 20 21
97 99 102 102 100 97 93 89 88 87 85 81 78 76 74 74 73 71 68 65 62 60 59 57 53 51 49 47 46 44 42 40 38 36 35 34 33 31 30 28 26 23 21 21 22 22 23 23 22 20 17 17 16 14 13 12 11 10 9 8 8 8 7 6 5 4 2 0 2 3 4 5 6 6 8 9 9 10 12 14 15 15 15 17 19 21 22 23
96 98 101 103 102 99 95 92 90 89 87 84 81 78 76 74 74 74 72 69 64 62 61 59 55 52 50 48 48 47 44 43 41 39 38 36 35 34 33 30 27 25 23 23 24 24 24 25 24 22 20 18 17 15 14 14 13 12 11 10 10 9 8 8 7 6 5 3 2 1 2 3 4 5 6 8 9 11 12 14 15 15 15 16 19 22 24 25
96 97 100 103 103 101 99 95 92 91 90 87 84 81 78 77 76 75 74 73 68 63 62 61 58 56 53 50 50 50 48 46 43 41 40 39 37 35 35 32 29 27 25 25 26 26 24 25 25 24 23 21 19 17 16 16 15 14 14 13 12 11 11 10 10 9 8 7 6 4 3 3 4 5 6 8 10 11 12 13 14 15 16 17 19 22 24 26
96 97 99 101 103 103 102 99 95 93 92 90 87 85 82 80 78 76 76 76 72 66 63 62 61 59 56 53 53 52 50 47 45 43 41 40 38 36 36 35 32 30 29 28 29 28 25 23 25 26 26 24 22 20 19 18 17 17 16 15 14 14 14 14 12 11 10 9 9 7 5 4 5 6 7 8 10 11 13 14 14 15 16 18 19 21 23 26
98 99 100 101 102 104 104 102 98 95 94 93 91 89 86 84 81 78 77 77 75 70 66 64 63 62 60 57 55 53 50 49 48 45 43 41 40 38 37 37 35 33 32 31 31 30 25 23 25 27 27 25 23 21 20 20 19 18 18 18 18 18 17 16 15 13 12 11 11 10 8 5 5 7 7 8 10 12 13 15 15 16 16 18 19 21 23 25
99 100 101 101 102 104 106 105 101 98 96 96 95 92 89 86 83 80 79 79 77 74 70 66 64 64 62 60 57 54 51 50 49 47 45 44 44 42 41 40 38 36 34 33 33 31 27 24 25 27 27 26 24 21 21 21 19 19 20 21 22 21 19 18 17 15 14 13 14 13 11 8 7 8 9 10 11 13 14 15 16 16 17 18 20 21 23 24
Wind_Direction
331 333 336 339 343 349 354 357 359 3 7 10 14 16 16 17 18 19 19 19 18 18 21 21 21 26 32 42 52 59 65 67 68 72 75 77 78 76 74 77 83 92 96 102 117 130 141 145 143 144 155 156 151 155 152 138 126 141 200 203 221 219 215 210 196 195 197 208 223 212 205 205 260 300 312 315 310 305 298 294 294 297 304 306 308 313 309 307
326 330 333 336 340 345 350 355 358 0 5 8 12 15 16 17 18 19 19 20 20 19 19 21 20 24 31 39 50 64 73 72 71 73 75 77 78 78 79 81 86 94 102 107 116 130 144 149 146 150 160 162 162 160 147 133 140 196 240 241 260 250 232 228 223 225 222 224 240 245 240 239 248 269 292 305 306 306 304 300 297 295 295 292 294 298 298 300
322 326 330 333 337 341 347 352 356 358 2 6 10 14 16 17 18 19 20 20 21 20 20 20 19 20 26 35 46 59 70 69 67 68 71 80 83 81 81 84 88 93 102 113 120 130 145 152 150 154 163 167 173 167 152 144 175 252 285 282 282 284 267 251 242 237 236 238 245 251 251 253 260 270 284 297 301 300 299 297 295 292 291 290 289 291 293 295
317 322 326 330 334 339 343 348 353 356 359 3 8 12 15 17 18 19 20 20 21 23 23 22 20 18 20 28 37 44 53 55 55 59 65 81 86 83 80 80 83 88 96 114 130 138 145 153 155 162 172 179 188 184 193 240 260 282 295 296 287 283 279 267 256 249 248 251 253 257 258 260 266 273 281 291 296 296 296 295 294 293 292 291 290 290 291 292
313 317 322 327 331 336 341 345 350 355 357 0 5 9 13 16 17 18 20 20 21 24 25 26 24 21 19 22 26 29 34 37 40 49 61 82 89 81 74 69 72 80 90 103 126 142 152 166 173 195 203 206 211 207 226 253 269 288 296 296 292 288 284 276 267 260 258 260 263 265 266 269 272 276 281 287 291 293 292 291 290 292 293 293 293 293 293 294
308 312 317 323 328 332 338 343 347 352 356 358 2 6 11 14 16 17 19 19 20 23 25 29 31 29 25 25 26 25 24 28 34 43 58 82 91 79 70 66 68 74 85 96 105 120 137 173 199 235 238 237 237 231 243 256 266 283 293 294 291 289 285 279 274 269 264 263 265 267 270 273 276 281 285 288 289 289 288 287 286 288 291 294 295 296 297 297
303 306 312 317 323 328 334 340 345 350 354 356 359 3 8 13 15 16 18 18 19 21 24 27 32 35 32 31 32 28 22 24 31 46 61 81 89 78 68 64 61 60 65 78 80 85 91 109 204 232 243 247 249 251 258 264 269 278 286 288 286 282 279 276 274 271 269 267 267 268 269 272 277 280 283 285 285 284 283 284 285 287 289 292 294 295 297 299
298 300 305 310 317 323 330 337 343 348 352 355 357 360 4 9 14 16 17 18 18 20 23 25 28 34 35 34 34 29 25 28 34 51 69 79 79 70 62 53 47 42 37 41 46 48 54 46 214 206 223 237 246 257 262 265 269 273 278 280 280 279 278 277 275 273 271 271 271 272 272 274 276 278 278 279 278 276 277 279 283 285 288 289 292 295 297 299
294 295 298 303 309 316 324 333 341 347 351 353 355 357 1 5 11 15 16 17 18 19 22 24 26 30 35 35 33 29 31 37 45 61 77 79 72 62 55 47 39 28 16 14 24 40 54 70 115 149 198 226 240 253 260 266 269 271 274 277 279 279 280 282 280 277 275 274 277 279 281 280 277 273 272 272 273 273 274 277 280 283 286 290 294 296 297 298
289 290 292 296 301 307 316 326 337 345 350 352 353 355 357 2 7 12 15 16 18 18 20 24 25 27 32 36 31 29 35 44 56 68 78 78 72 63 54 45 35 22 13 22 46 62 79 88 83 83 98 233 262 270 279 286 286 283 282 283 285 284 284 281 277 279 284 288 294 296 293 287 278 271 269 270 273 276 277 278 280 282 286 289 291 293 297 299
284 286 287 290 294 299 307 317 329 342 348 350 351 352 354 358 3 9 13 15 18 19 19 22 25 25 29 34 31 28 34 46 59 66 69 71 68 61 54 47 43 36 36 53 70 77 82 79 76 73 65 24 325 313 308 307 306 302 297 294 294 300 301 288 285 294 301 311 314 309 300 289 278 271 271 275 278 280 279 278 280 283 285 286 285 291 300 306
278 280 281 284 287 291 298 308 320 334 344 347 348 349 352 355 359 5 11 14 17 19 19 21 23 24 26 31 32 30 31 39 53 59 60 63 65 60 55 51 49 49 52 61 71 77 81 77 69 58 41 13 345 338 347 358 7 22 38 54 62 56 46 47 39 0 339 346 325 306 302 294 285 280 280 281 280 278 276 275 279 286 288 285 287 300 311 327
273 275 276 277 280 285 290 298 309 323 336 342 345 346 348 351 356 1 7 12 15 17 19 20 23 24 25 27 32 35 35 39 50 55 52 55 62 59 52 49 50 55 63 67 71 74 75 72 62 48 35 25 26 41 52 60 68 71 73 74 70 64 56 56 58 50 52 48 346 297 283 281 287 292 283 279 277 277 280 285 292 301 302 301 317 336 344 7
270 271 272 272 274 277 283 290 298 310 325 334 340 343 345 348 352 357 3 8 12 15 17 19 22 24 24 25 28 33 38 45 53 53 45 42 52 53 49 51 54 62 71 73 72 69 63 63 59 49 43 44 54 64 63 65 71 71 68 63 58 51 44 53 70 71 69 71 64 51 39 12 7 37 350 289 298 312 330 343 4 24 27 29 28 19 14 16
267 268 269 269 268 270 275 282 290 298 311 324 333 339 342 345 348 353 358 3 8 12 14 16 20 22 24 24 25 28 33 42 52 52 44 33 36 45 43 46 52 68 79 79 73 64 59 58 54 48 48 51 61 66 62 60 64 63 58 54 51 48 48 59 75 75 71 72 71 65 60 59 61 68 75 77 65 51 46 48 53 57 54 47 37 27 20 19
264 265 266 266 264 264 268 274 282 289 298 312 324 333 338 341 345 348 353 358 2 8 12 14 16 19 22 23 23 24 28 36 45 52 49 34 28 35 29 28 44 79 92 94 89 73 63 61 53 50 53 57 60 62 59 58 60 57 52 50 50 50 51 60 72 74 72 72 72 70 66 65 67 71 76 77 71 66 66 67 67 66 61 53 45 39 34 30
260 261 263 264 262 261 262 266 273 281 288 299 313 323 331 337 341 344 347 352 357 2 8 12 14 16 19 21 21 21 23 29 37 46 49 33 20 30 25 14 31 77 94 95 92 76 66 66 59 57 62 65 66 64 59 58 60 57 54 53 52 52 53 57 66 74 75 74 73 72 69 67 69 72 77 80 79 78 78 76 73 72 70 64 56 48 37 30
258 258 260 261 261 258 258 260 265 273 280 287 300 312 322 330 336 339 342 348 352 356 1 8 12 15 16 18 20 20 20 23 31 40 49 41 25 31 41 25 25 59 77 76 72 63 61 70 70 66 69 74 73 69 62 58 58 56 56 57 55 55 55 57 61 67 71 72 70 69 69 69 68 72 77 80 82 82 77 72 72 74 73 66 54 41 35 34
255 256 256 258 259 257 256 257 259 265 272 278 287 300 310 320 328 333 337 343 348 351 354 1 8 13 15 16 18 20 19 21 26 34 45 48 38 35 44 50 38 47 63 61 52 50 49 61 73 73 76 81 76 66 58 54 52 49 51 58 58 56 53 53 55 59 64 65 62 63 67 68 64 68 77 79 79 77 70 65 69 71 65 56 45 36 35 34
254 254 254 254 256 256 255 255 256 259 265 270 277 288 297 306 317 325 330 336 343 346 349 354 1 9 13 13 15 19 20 20 24 30 39 47 44 37 38 51 42 34 43 43 36 39 39 49 69 77 79 76 68 58 51 47 44 39 43 52 55 53 49 45 45 52 60 60 57 55 57 60 62 65 71 74 75 74 70 65 63 62 56 48 42 38 35 28
253 252 252 252 253 254 254 254 255 255 259 264 270 277 284 293 304 315 322 328 336 341 344 347 352 1 10 12 11 17 21 19 22 28 34 42 43 34 35 39 21 9 8 7 18 35 43 45 56 67 71 67 58 50 45 42 40 34 36 45 48 48 42 37 38 43 50 51 48 48 47 50 58 59 60 65 69 72 76 74 62 55 50 47 46 43 36 26
252 251 250 250 250 252 253 254 254 254 255 259 263 268 274 281 291 302 313 320 327 333 338 342 345 350 2 9 8 13 20 20 21 26 31 39 41 33 35 38 18 1 359 8 30 48 55 39 32 43 56 59 51 43 40 37 34 31 32 36 39 42 35 27 29 33 35 34 35 43 50 51 49 47 51 60 69 75 79 74 62 56 60 62 55 44 33 23
250 250 249 248 248 250 251 252 253 253 252 255 258 261 266 272 279 290 301 311 318 324 330 336 338 341 352 4 6 7 16 21 21 25 30 36 39 35 37 43 38 29 28 35 51 70 71 25 11 25 43 52 45 35 34 28 24 30 31 30 32 34 31 21 21 27 28 26 25 30 40 51 52 48 51 57 68 81 85 79 73 72 72 65 52 40 32 25
247 249 249 248 246 247 249 250 251 252 251 251 254 256 260 264 270 277 287 298 307 314 321 328 331 334 343 356 2 2 10 20 21 23 28 32 36 36 39 46 51 49 46 45 52 61 56 16 14 30 42 50 41 29 32 24 24 38 34 29 29 26 23 17 16 22 22 17 12 12 21 36 49 54 56 58 71 89 91 85 83 79 70 58 47 40 37 33
243 245 247 248 246 245 247 248 249 250 249 249 251 253 256 259 262 268 275 285 295 304 311 318 324 329 336 346 353 357 4 17 21 22 25 29 34 36 39 45 51 54 56 57 60 60 52 41 45 47 48 55 50 39 40 36 46 50 40 35 35 28 24 20 19 21 17 11 13 22 31 40 53 65 72 77 84 90 91 88 84 76 66 57 52 47 43 39
241 241 242 246 247 245 245 247 247 248 248 247 248 250 253 255 257 261 266 275 284 293 301 309 316 322 329 335 342 349 357 10 20 20 20 25 31 34 39 45 48 52 55 59 64 64 60 57 61 62 64 68 66 60 60 63 65 61 51 46 48 48 46 43 42 41 37 35 39 47 55 63 72 79 83 85 87 89 90 87 82 75 68 63 57 50 44 41
239 240 239 242 246 246 244 245 245 245 246 246 246 248 250 251 253 256 260 267 275 283 291 299 307 314 320 324 330 340 350 1 15 20 17 21 29 32 36 43 47 50 52 56 61 63 61 59 65 71 70 70 70 71 74 75 71 65 58 57 60 63 65 65 66 66 65 64 64 66 71 75 79 82 83 85 87 89 89 86 81 75 68 62 55 48 44 41
237 239 238 238 241 245 244 243 243 243 244 244 245 247 248 248 250 252 255 259 266 274 282 290 299 305 310 314 319 328 340 350 4 17 15 15 24 30 33 38 44 49 51 54 59 62 61 61 65 70 71 71 74 77 78 76 72 67 64 65 68 71 73 74 73 74 75 75 76 76 78 79 81 82 84 86 89 90 89 85 80 72 64 58 53 47 43 41
236 237 238 236 237 241 244 243 242 242 242 243 244 246 246 246 247 249 252 254 258 265 273 281 289 294 300 305 309 315 326 338 351 10 12 7 16 26 29 32 38 46 50 53 56 59 60 60 62 67 72 75 77 76 74 74 74 73 71 71 72 74 74 74 74 74 76 78 79 80 81 82 85 87 88 90 90 89 86 82 74 65 60 57 53 46 42 41
235 235 236 236 235 236 241 243 242 240 240 241 243 244 245 245 245 247 249 250 252 257 264 271 278 284 293 298 299 303 312 324 336 358 10 360 5 19 25 28 31 38 47 51 52 56 59 59 61 66 72 77 76 72 70 73 76 77 74 72 73 75 75 75 74 74 75 77 80 82 83 84 86 87 89 88 86 85 81 74 65 61 60 56 50 44 42 41
233 234 234 235 234 234 237 241 242 240 239 240 241 243 244 244 244 245 246 247 248 251 256 263 270 275 282 287 287 290 296 308 319 337 2 351 354 11 21 26 27 30 41 49 51 56 60 60 61 65 70 75 76 70 67 71 75 76 72 70 72 76 78 77 75 74 75 77 79 80 81 82 82 83 84 83 82 79 73 65 60 58 56 51 46 43 42 41
231 232 233 233 233 233 234 237 240 240 239 238 239 240 242 243 243 243 243 244 244 246 250 256 262 264 266 269 272 274 280 291 304 317 338 337 340 359 13 22 25 27 35 44 51 59 64 62 62 64 67 73 76 72 66 66 71 74 71 69 71 75 79 79 77 75 76 77 77 77 77 78 79 79 79 79 77 73 67 62 59 55 51 47 45 43 42 41
231 230 231 232 232 232 233 233 235 237 238 238 237 238 240 241 242 242 241 241 241 242 245 249 252 253 254 259 262 263 267 276 288 302 311 303 317 339 356 12 20 26 31 39 49 60 65 61 60 63 66 69 73 72 67 63 65 69 69 68 70 73 76 78 79 79 79 79 77 75 76 76 77 76 75 74 72 69 65 61 57 53 49 46 45 44 43 41
231 229 229 230 231 231 232 232 232 233 235 237 237 236 237 240 241 239 238 238 237 238 241 243 246 247 250 255 258 260 263 270 278 287 290 279 282 300 319 350 7 19 30 37 44 55 61 57 52 56 63 67 70 70 67 62 62 64 65 65 66 71 74 75 78 81 83 82 80 78 79 80 79 77 74 72 70 67 63 59 55 52 49 47 44 43 42 41
231 230 228 228 229 230 231 232 231 230 231 234 236 236 236 238 239 237 235 236 235 236 239 240 241 243 247 251 255 258 262 267 273 276 274 263 260 265 268 289 331 357 21 38 45 49 53 50 43 46 53 61 68 71 68 65 62 63 65 64 63 67 73 74 74 77 82 86 86 85 84 83 82 80 77 72 67 63 60 57 55 53 50 46 42 40 39 39
230 229 228 226 227 230 230 231 231 230 229 230 233 235 235 237 237 234 232 233 233 234 236 237 238 238 242 248 251 254 257 262 268 272 266 255 251 251 249 248 258 286 326 15 46 51 49 43 32 32 38 45 60 71 73 69 65 62 63 64 62 62 66 69 68 71 78 84 88 89 86 82 77 74 73 70 64 58 55 52 52 53 51 47 41 36 36 38
229 229 228 226 225 228 230 229 230 230 229 227 228 233 236 236 235 233 230 229 230 232 234 235 236 235 238 243 246 248 252 255 260 267 266 254 247 246 245 243 239 237 250 269 322 56 56 47 26 19 23 29 43 64 75 75 70 64 60 59 57 58 60 60 60 64 73 80 84 84 79 72 65 60 61 60 55 50 47 46 46 48 48 43 35 32 35 39
228 227 228 226 224 225 228 228 228 229 229 226 226 231 236 237 234 232 229 228 228 230 232 233 233 233 234 238 240 242 244 245 249 258 262 255 247 244 243 243 241 232 227 237 243 222 119 69 25 8 13 17 25 46 64 74 75 72 67 60 55 56 57 55 52 57 67 72 75 70 59 55 53 52 52 51 47 45 43 41 41 41 40 36 32 33 39 43
227 226 226 226 224 223 226 227 227 228 228 227 226 229 235 236 234 232 229 227 226 228 230 230 230 231 231 233 236 236 237 237 239 246 253 254 249 243 239 239 241 237 226 225 231 227 214 200 222 291 330 350 8 29 44 57 69 76 78 73 65 64 63 57 50 51 56 59 59 56 50 48 48 47 47 45 44 42 41 40 40 40 40 38 38 40 43 44
227 226 225 225 224 222 223 226 226 226 227 227 227 229 232 235 233 230 229 228 226 227 228 228 227 227 228 230 231 233 233 233 233 237 244 250 249 243 238 235 237 240 235 227 228 229 222 209 208 221 236 264 316 20 40 38 43 63 80 78 68 70 73 67 57 51 50 46 45 49 50 50 51 51 50 49 47 44 43 44 44 46 45 43 42 41 40 39
226 226 225 224 224 222 221 224 225 225 225 226 227 228 231 233 232 229 227 227 226 225 226 226 225 224 225 227 228 229 231 231 232 234 239 247 251 249 244 237 234 238 237 231 229 230 229 220 213 219 229 238 247 248 223 0 3 28 62 62 46 56 72 76 70 63 57 48 42 45 48 51 54 55 55 55 53 49 48 49 48 48 46 42 38 36 33 32
226 225 224 224 223 221 220 221 223 224 224 224 226 227 229 231 231 228 225 224 224 225 225 225 224 223 223 224 224 226 229 229 230 233 235 242 249 253 252 246 239 238 236 233 232 232 231 228 224 227 234 236 232 234 236 233 245 281 327 342 347 9 45 65 68 65 67 64 55 51 49 50 53 55 55 57 56 53 50 48 46 43 40 36 33 30 28 25
225 225 224 223 222 221 219 220 222 223 223 223 224 225 227 230 231 229 225 222 222 224 225 224 224 223 222 223 221 221 225 227 228 231 232 236 242 247 252 251 245 242 239 234 233 234 233 230 228 227 231 232 232 235 238 240 244 254 287 314 328 347 16 38 44 48 60 69 67 60 53 49 50 52 51 51 52 49 45 42 40 38 34 30 26 24 22 19
225 225 224 223 222 221 219 219 220 221 222 222 222 224 225 227 229 229 226 223 221 223 225 224 223 223 222 222 220 219 222 225 225 228 230 233 237 242 245 246 243 243 243 238 233 233 233 231 228 227 225 227 233 239 236 234 242 251 275 302 314 333 356 13 21 33 49 61 66 65 55 45 40 40 38 36 34 34 34 33 30 29 27 22 18 15 13 11
226 225 224 223 222 220 218 218 219 220 221 221 221 223 224 225 228 228 226 224 221 222 224 224 223 223 222 222 220 218 220 223 224 226 228 230 234 237 239 241 242 242 244 243 236 233 233 232 230 228 225 226 234 238 232 223 226 230 221 215 212 214 233 272 333 31 58 69 72 71 63 49 36 27 22 19 16 14 16 20 21 18 16 13 9 5 2 1
226 225 224 222 221 220 218 218 219 220 221 221 221 222 223 224 226 227 226 224 222 222 224 224 223 224 223 222 221 219 219 222 223 224 226 228 231 233 236 239 241 241 242 245 241 236 235 234 233 231 226 227 233 235 230 223 222 222 219 214 209 209 217 226 233 232 114 80 77 72 63 51 37 23 12 6 3 0 359 2 5 6 4 1 357 355 354 354
224 225 224 223 221 220 219 217 218 219 220 220 220 221 222 223 224 226 226 225 223 222 224 224 223 224 225 223 223 222 221 222 223 224 225 227 228 230 234 238 241 239 238 240 240 238 236 236 236 235 229 228 231 231 227 225 226 225 222 220 217 215 218 223 231 239 241 117 73 64 56 44 31 19 5 357 353 351 350 350 350 351 351 348 345 346 349 351
222 223 224 223 221 220 219 217 217 219 219 220 220 220 221 223 224 225 226 225 223 222 224 224 222 223 225 224 224 223 222 222 223 223 225 227 227 228 232 236 240 239 236 238 240 238 236 235 237 238 235 231 231 230 226 224 227 228 228 226 222 219 218 218 223 235 245 245 252 317 24 24 15 5 356 351 349 348 348 348 349 349 346 342 340 341 344 348
220 221 222 222 221 219 219 217 216 218 219 219 219 220 220 222 224 224 225 225 223 222 224 224 222 221 222 223 224 224 222 222 222 222 224 226 226 227 230 234 237 237 236 237 240 240 236 233 234 238 239 236 233 231 229 227 228 230 232 230 223 219 221 220 219 228 245 254 257 269 298 327 336 339 339 340 342 343 342 343 345 345 342 340 339 339 340 344
217 219 220 221 220 219 218 218 216 216 218 218 219 219 220 221 223 224 225 225 223 221 223 224 223 222 220 221 223 224 223 223 223 223 223 225 226 226 227 231 234 235 235 235 238 241 237 230 230 234 237 238 237 235 234 234 232 231 233 233 226 222 223 225 222 225 239 252 260 268 282 301 314 322 329 334 336 336 336 336 338 339 339 339 339 338 338 342
216 217 218 219 219 219 218 218 216 216 217 218 218 219 219 220 221 223 224 225 222 220 221 223 224 223 221 220 222 223 223 224 224 223 223 225 227 228 227 229 231 233 236 236 238 241 239 230 227 230 234 237 237 236 235 236 233 231 233 234 231 226 226 229 231 233 238 246 256 265 274 286 300 309 321 330 334 334 333 333 335 338 340 342 341 339 338 341
216 216 216 217 218 218 218 217 216 216 216 217 218 218 219 220 221 222 223 225 222 220 220 221 223 224 223 221 221 221 222 224 224 223 222 222 225 228 228 229 230 232 234 237 238 240 240 232 227 227 230 234 235 234 232 231 231 231 232 233 231 229 229 233 238 242 245 248 253 261 269 277 285 296 307 317 326 330 331 331 332 332 334 338 339 338 337 338
Height
10778 10776 10774 10773 10771 10769 10767 10764 10762 10759 10756 10753 10750 10747 10743 10739 10735 10731 10727 10722 10717 10713 10711 10710 10708 10705 10703 10701 10700 10699 10698 10697 10697 10696 10695 10695 10694 10694 10694 10695 10695 10696 10696 10697 10697 10697 10698 10699 10700 10701 10702 10703 10703 10704 10704 10705 10707 10709 10709 10710 10710 10711 10711 10710 10710 10711 10711 10712 10712 10713 10713 10713 10713 10713 10713 10713 10713 10713 10713 10713 10713 10713 10712 10712 10712 10712 10712 10712
10778 10776 10774 10773 10771 10769 10767 10765 10762 10760 10757 10754 10751 10748 10745 10742 10738 10734 10730 10725 10721 10717 10714 10712 10710 10708 10706 10704 10702 10701 10701 10700 10699 10699 10698 10698 10697 10697 10697 10698 10698 10699 10699 10699 10699 10700 10700 10700 10702 10703 10704 10704 10705 10705 10706 10707 10708 10710 10710 10711 10711 10711 10711 10711 10711 10711 10712 10712 10713 10713 10713 10713 10713 10713 10713 10713 10713 10713 10713 10713 10713 10712 10712 10712 10712 10711 10711 10711
10778 10776 10775 10773 10771 10770 10768 10765 10763 10761 10758 10756 10753 10750 10747 10744 10740 10736 10733 10729 10724 10720 10717 10714 10712 10711 10709 10707 10705 10704 10703 10702 10702 10701 10701 10700 10700 10699 10699 10700 10700 10701 10701 10701 10701 10702 10702 10703 10703 10705 10706 10706 10706 10707 10707 10708 10709 10710 10710 10710 10711 10711 10711 10711 10711 10711 10712 10712 10713 10713 10713 10713 10713 10713 10713 10713 10713 10713 10713 10712 10712 10712 10712 10711 10711 10711 10710 10710
10777 10776 10775 10773 10771 10770 10768 10766 10764 10762 10759 10757 10754 10751 10748 10745 10742 10739 10735 10732 10728 10724 10720 10717 10714 10713 10711 10709 10708 10706 10705 10704 10704 10703 10703 10703 10702 10701 10701 10701 10702 10702 10703 10703 10703 10704 10704 10705 10705 10706 10707 10708 10708 10708 10708 10709 10710 10710 10710 10710 10711 10711 10711 10711 10711 10711 10711 10712 10712 10712 10713 10713 10712 10712 10712 10712 10712 10712 10712 10712 10711 10711 10711 10710 10710 10710 10709 10708
10777 10776 10775 10773 10772 10770 10768 10766 10764 10762 10760 10758 10755 10752 10750 10747 10744 10741 10737 10734 10731 10727 10723 10720 10717 10715 10713 10711 10709 10708 10707 10706 10706 10705 10705 10705 10704 10703 10703 10703 10703 10704 10704 10705 10705 10705 10706 10706 10707 10708 10709 10709 10709 10709 10709 10709 10709 10709 10710 10710 10710 10710 10710 10710 10711 10711 10711 10711 10711 10712 10712 10712 10711 10711 10711 10711 10710 10710 10710 10710 10710 10709 10709 10709 10708 10708 10707 10706
10776 10775 10774 10773 10772 10770 10768 10767 10765 10763 10761 10758 10756 10753 10751 10748 10745 10742 10739 10736 10733 10729 10726 10723 10720 10718 10715 10713 10712 10710 10709 10708 10707 10707 10707 10707 10706 10706 10705 10705 10705 10705 10706 10706 10706 10707 10707 10707 10708 10708 10709 10710 10710 10710 10709 10709 10709 10709 10709 10709 10709 10709 10709 10709 10709 10709 10710 10710 10710 10711 10711 10710 10710 10710 10709 10709 10709 10709 10708 10708 10708 10707 10707 10707 10706 10706 10705 10704
10775 10775 10774 10773 10772 10770 10768 10767 10765 10763 10761 10759 10757 10754 10752 10749 10747 10744 10741 10738 10735 10731 10728 10725 10722 10720 10718 10716 10714 10713 10712 10711 10710 10709 10709 10709 10708 10707 10706 10706 10706 10706 10707 10707 10707 10707 10708 10708 10708 10709 10709 10710 10710 10710 10709 10709 10709 10709 10708 10708 10708 10708 10708 10708 10708 10708 10708 10708 10709 10709 10709 10709 10709 10708 10708 10707 10707 10707 10706 10706 10706 10705 10705 10705 10704 10704 10703 10702
10774 10774 10773 10772 10771 10770 10768 10767 10765 10763 10762 10760 10758 10755 10753 10750 10748 10745 10743 10740 10737 10734 10730 10727 10724 10722 10720 10718 10716 10716 10715 10713 10711 10711 10710 10710 10709 10708 10708 10708 10707 10707 10707 10707 10708 10708 10708 10709 10709 10709 10710 10710 10710 10709 10709 10708 10708 10707 10707 10707 10706 10706 10706 10706 10706 10706 10706 10706 10706 10707 10707 10706 10706 10706 10706 10705 10705 10704 10704 10704 10704 10704 10703 10703 10703 10702 10701 10701
10773 10773 10772 10772 10771 10770 10768 10767 10765 10764 10762 10760 10758 10756 10754 10751 10749 10747 10744 10742 10738 10736 10733 10729 10726 10724 10722 10720 10719 10718 10717 10715 10713 10712 10712 10711 10711 10710 10709 10709 10709 10708 10708 10708 10708 10708 10709 10709 10709 10710 10710 10710 10709 10709 10708 10707 10707 10706 10706 10705 10705 10705 10704 10704 10704 10704 10704 10704 10704 10704 10704 10704 10704 10703 10703 10703 10703 10703 10703 10702 10702 10702 10702 10702 10701 10701 10700 10699
10772 10772 10771 10771 10770 10769 10768 10766 10765 10764 10762 10760 10759 10757 10755 10752 10750 10748 10746 10743 10740 10737 10735 10732 10729 10726 10724 10722 10721 10721 10719 10717 10716 10715 10714 10713 10712 10712 10711 10711 10710 10710 10709 10709 10709 10710 10710 10710 10710 10710 10710 10710 10709 10709 10708 10707 10706 10705 10705 10704 10704 10704 10703 10703 10702 10702 10702 10702 10702 10702 10702 10702 10701 10701 10701 10701 10701 10701 10701 10701 10701 10701 10701 10700 10700 10699 10699 10698
10770 10770 10770 10770 10769 10768 10767 10766 10765 10764 10762 10761 10759 10757 10755 10753 10751 10749 10747 10745 10742 10739 10737 10734 10731 10729 10726 10724 10723 10722 10721 10720 10719 10717 10715 10714 10714 10713 10713 10713 10712 10711 10711 10710 10711 10711 10711 10711 10711 10711 10711 10710 10709 10709 10707 10706 10705 10704 10703 10703 10703 10703 10702 10702 10701 10701 10701 10701 10701 10701 10701 10700 10700 10700 10700 10700 10700 10700 10700 10700 10700 10699 10699 10699 10699 10698 10698 10697
10768 10768 10768 10768 10768 10768 10767 10766 10764 10763 10762 10761 10759 10758 10756 10754 10752 10750 10748 10746 10744 10741 10739 10737 10734 10731 10728 10725 10724 10723 10722 10721 10719 10718 10716 10716 10715 10716 10715 10715 10714 10713 10713 10712 10712 10712 10712 10712 10712 10712 10711 10710 10710 10709 10707 10706 10705 10704 10703 10702 10702 10702 10702 10701 10701 10701 10700 10700 10700 10700 10700 10700 10699 10699 10699 10699 10700 10700 10700 10699 10699 10699 10698 10698 10698 10698 10697 10696
10767 10766 10766 10767 10767 10766 10766 10765 10764 10763 10762 10761 10759 10758 10756 10755 10753 10751 10749 10747 10745 10743 10741 10739 10736 10733 10731 10728 10726 10724 10723 10722 10720 10719 10718 10718 10718 10718 10718 10717 10716 10716 10715 10714 10714 10714 10713 10713 10713 10713 10712 10711 10710 10709 10707 10706 10705 10704 10704 10703 10702 10702 10702 10701 10700 10700 10700 10700 10700 10700 10699 10699 10699 10699 10699 10699 10700 10700 10699 10699 10699 10699 10698 10698 10698 10697 10697 10696
10765 10764 10764 10765 10765 10765 10764 10764 10763 10762 10761 10760 10759 10758 10757 10755 10753 10752 10750 10748 10746 10744 10742 10741 10739 10736 10733 10731 10729 10727 10725 10723 10721 10721 10720 10720 10719 10719 10720 10719 10718 10717 10716 10716 10715 10715 10715 10714 10714 10713 10712 10711 10710 10709 10708 10708 10706 10705 10705 10703 10703 10702 10702 10701 10701 10700 10700 10700 10699 10699 10699 10699 10699 10699 10699 10700 10700 10700 10700 10699 10699 10699 10699 10698 10698 10698 10697 10696
10763 10763 10762 10763 10763 10763 10763 10762 10762 10761 10761 10760 10759 10758 10757 10755 10754 10752 10751 10749 10747 10746 10744 10742 10740 10738 10736 10733 10731 10729 10727 10724 10722 10722 10722 10721 10721 10721 10721 10721 10720 10719 10718 10717 10717 10716 10716 10715 10714 10714 10712 10712 10711 10710 10709 10708 10707 10706 10706 10705 10704 10704 10703 10702 10701 10701 10700 10700 10700 10700 10700 10700 10700 10700 10700 10700 10700 10700 10700 10700 10700 10699 10699 10698 10698 10698 10697 10697
10760 10760 10760 10761 10761 10761 10761 10761 10760 10760 10760 10759 10759 10758 10757 10756 10754 10753 10751 10750 10748 10747 10745 10743 10741 10739 10737 10735 10733 10731 10728 10726 10724 10723 10722 10722 10722 10722 10722 10721 10721 10720 10719 10719 10718 10718 10717 10715 10715 10714 10713 10712 10711 10710 10710 10709 10708 10708 10707 10706 10706 10705 10704 10702 10702 10701 10701 10701 10701 10701 10701 10702 10702 10701 10701 10701 10701 10701 10701 10700 10700 10699 10699 10699 10699 10698 10698 10697
10758 10758 10758 10758 10759 10759 10759 10759 10759 10759 10759 10759 10758 10757 10756 10756 10755 10753 10752 10750 10749 10747 10746 10744 10742 10740 10738 10736 10734 10732 10730 10728 10725 10724 10723 10723 10723 10723 10723 10722 10721 10721 10720 10720 10719 10718 10717 10716 10715 10715 10714 10713 10712 10711 10711 10710 10710 10709 10709 10708 10707 10706 10705 10704 10703 10702 10702 10702 10702 10702 10703 10703 10703 10702 10702 10701 10701 10701 10701 10700 10700 10699 10699 10699 10699 10698 10698 10697
10755 10755 10756 10756 10756 10756 10756 10757 10757 10757 10757 10757 10757 10757 10756 10755 10755 10754 10752 10751 10749 10748 10746 10745 10744 10742 10740 10738 10736 10734 10732 10730 10727 10725 10723 10724 10725 10724 10723 10723 10722 10721 10721 10721 10720 10719 10718 10717 10716 10715 10714 10714 10713 10713 10713 10712 10711 10711 10710 10710 10709 10708 10707 10706 10705 10704 10703 10703 10703 10704 10704 10704 10704 10703 10702 10702 10702 10702 10701 10701 10701 10700 10699 10699 10699 10699 10698 10697
10752 10752 10753 10753 10753 10754 10754 10754 10755 10756 10756 10756 10756 10756 10755 10755 10754 10754 10752 10751 10750 10749 10747 10746 10745 10743 10741 10740 10738 10736 10734 10732 10729 10727 10725 10725 10726 10725 10724 10723 10723 10722 10722 10722 10721 10720 10719 10718 10716 10715 10715 10714 10714 10714 10714 10713 10712 10712 10712 10711 10710 10709 10708 10707 10706 10706 10705 10704 10705 10705 10705 10705 10705 10704 10703 10702 10702 10702 10702 10702 10701 10701 10700 10700 10699 10699 10698 10697
10748 10749 10750 10750 10751 10751 10751 10752 10753 10754 10754 10754 10755 10755 10754 10754 10754 10753 10752 10751 10750 10749 10748 10746 10745 10744 10743 10741 10740 10738 10736 10734 10731 10729 10726 10725 10726 10726 10725 10724 10723 10723 10722 10722 10721 10721 10721 10719 10718 10716 10716 10715 10715 10715 10714 10714 10713 10713 10712 10712 10711 10710 10709 10709 10708 10707 10706 10705 10705 10706 10706 10706 10706 10705 10704 10703 10703 10703 10703 10702 10702 10701 10701 10700 10700 10699 10698 10696
10745 10745 10746 10747 10748 10747 10748 10749 10751 10752 10753 10753 10753 10753 10753 10753 10753 10752 10752 10751 10750 10749 10748 10747 10746 10745 10744 10742 10741 10740 10737 10736 10733 10731 10729 10726 10726 10727 10726 10725 10724 10723 10723 10722 10722 10722 10722 10721 10719 10718 10717 10716 10716 10715 10715 10714 10714 10713 10713 10712 10711 10710 10710 10709 10709 10708 10707 10706 10706 10706 10706 10706 10706 10706 10705 10704 10703 10703 10703 10703 10702 10702 10702 10701 10700 10699 10697 10695
10740 10741 10742 10743 10744 10744 10744 10746 10748 10750 10750 10751 10751 10751 10751 10752 10752 10752 10751 10751 10750 10749 10748 10747 10746 10745 10744 10743 10742 10741 10739 10737 10735 10733 10730 10727 10727 10728 10727 10725 10725 10724 10723 10723 10722 10722 10722 10721 10720 10719 10718 10717 10716 10716 10715 10715 10714 10713 10713 10712 10711 10710 10710 10709 10708 10708 10707 10706 10706 10706 10706 10706 10705 10705 10704 10704 10703 10703 10703 10703 10703 10702 10702 10701 10701 10699 10697 10694
10736 10737 10738 10739 10741 10741 10741 10742 10744 10747 10748 10749 10749 10749 10749 10750 10750 10750 10750 10750 10749 10749 10748 10747 10746 10746 10745 10744 10743 10742 10740 10739 10737 10734 10732 10729 10729 10730 10728 10727 10726 10725 10724 10724 10723 10723 10723 10722 10721 10720 10719 10717 10716 10716 10715 10715 10714 10714 10713 10713 10711 10710 10710 10709 10708 10707 10706 10706 10705 10705 10705 10705 10704 10704 10703 10703 10703 10703 10703 10703 10703 10703 10702 10702 10700 10698 10696 10693
10730 10733 10734 10734 10736 10737 10737 10739 10741 10743 10745 10746 10746 10746 10747 10748 10749 10749 10749 10749 10749 10748 10748 10747 10746 10746 10745 10744 10743 10743 10741 10739 10738 10736 10734 10733 10732 10731 10730 10729 10728 10727 10726 10725 10724 10723 10723 10723 10722 10721 10720 10718 10717 10716 10716 10715 10715 10714 10713 10713 10712 10710 10709 10709 10708 10706 10705 10705 10704 10704 10704 10704 10703 10703 10703 10703 10703 10703 10703 10703 10704 10704 10703 10701 10700 10698 10696 10693
10725 10727 10729 10730 10731 10733 10733 10735 10738 10740 10742 10743 10743 10744 10745 10746 10747 10747 10748 10748 10748 10748 10747 10747 10746 10745 10745 10744 10743 10743 10742 10740 10739 10737 10736 10735 10734 10733 10732 10731 10730 10729 10728 10727 10725 10724 10724 10724 10723 10722 10720 10719 10718 10717 10716 10716 10715 10714 10713 10713 10712 10710 10709 10708 10707 10706 10705 10704 10704 10703 10703 10703 10703 10703 10703 10703 10703 10703 10704 10704 10704 10704 10703 10701 10700 10698 10696 10694
10719 10722 10724 10725 10726 10728 10729 10731 10734 10736 10738 10739 10740 10741 10743 10744 10745 10745 10746 10746 10746 10746 10746 10746 10746 10745 10744 10744 10743 10743 10742 10741 10739 10738 10737 10736 10735 10735 10734 10733 10732 10731 10730 10729 10727 10726 10725 10725 10723 10722 10721 10720 10718 10718 10717 10717 10716 10714 10713 10713 10712 10711 10710 10709 10707 10706 10705 10705 10704 10703 10703 10703 10703 10703 10703 10703 10703 10704 10705 10705 10705 10704 10703 10702 10700 10699 10697 10695
10713 10716 10719 10721 10722 10723 10725 10727 10729 10732 10734 10735 10736 10738 10740 10741 10742 10743 10744 10745 10745 10745 10745 10745 10745 10744 10744 10744 10743 10743 10742 10741 10740 10739 10739 10738 10737 10737 10736 10735 10734 10733 10732 10730 10728 10727 10726 10726 10724 10723 10722 10720 10719 10719 10718 10717 10716 10714 10714 10713 10712 10711 10710 10710 10709 10708 10707 10706 10705 10704 10704 10704 10704 10704 10704 10704 10705 10706 10706 10706 10706 10705 10703 10702 10701 10700 10698 10696
10707 10709 10712 10715 10717 10718 10720 10722 10725 10728 10730 10731 10732 10735 10737 10738 10740 10741 10742 10743 10743 10743 10743 10744 10744 10744 10743 10743 10743 10743 10743 10742 10741 10740 10739 10739 10738 10738 10737 10736 10735 10734 10733 10731 10729 10728 10727 10727 10726 10724 10722 10721 10721 10720 10720 10718 10716 10715 10715 10715 10713 10713 10712 10711 10711 10710 10709 10708 10708 10707 10706 10706 10706 10705 10705 10706 10707 10707 10708 10707 10707 10705 10704 10703 10702 10701 10700 10698
10700 10703 10705 10709 10712 10713 10715 10717 10720 10723 10726 10727 10728 10731 10734 10735 10737 10738 10739 10740 10741 10741 10742 10742 10743 10743 10743 10742 10742 10742 10742 10742 10742 10740 10740 10739 10739 10739 10738 10737 10736 10736 10734 10732 10731 10729 10728 10729 10728 10726 10724 10723 10723 10723 10722 10720 10717 10717 10718 10717 10716 10715 10714 10714 10713 10712 10712 10711 10710 10710 10709 10708 10708 10707 10708 10708 10709 10709 10709 10709 10708 10706 10705 10704 10703 10702 10701 10699
10693 10696 10699 10702 10706 10708 10710 10712 10715 10718 10721 10722 10724 10727 10729 10732 10734 10735 10736 10737 10739 10740 10740 10741 10741 10742 10742 10741 10741 10742 10742 10742 10742 10741 10740 10740 10740 10739 10739 10738 10737 10737 10735 10734 10732 10731 10730 10730 10730 10728 10726 10725 10725 10726 10724 10722 10720 10720 10721 10720 10719 10718 10717 10716 10715 10714 10713 10712 10712 10712 10711 10711 10710 10710 10710 10710 10710 10710 10710 10710 10709 10707 10706 10705 10705 10704 10702 10701
10685 10688 10692 10695 10699 10703 10705 10707 10709 10713 10716 10717 10720 10722 10725 10728 10730 10731 10733 10734 10736 10737 10738 10739 10739 10740 10740 10740 10740 10740 10740 10741 10741 10741 10740 10740 10740 10739 10739 10738 10738 10737 10736 10735 10734 10732 10732 10732 10731 10730 10729 10728 10728 10728 10727 10725 10724 10724 10724 10723 10721 10720 10719 10718 10717 10716 10715 10715 10714 10714 10713 10713 10712 10712 10712 10712 10712 10712 10712 10711 10710 10709 10708 10707 10706 10705 10704 10702
10677 10681 10684 10688 10692 10696 10699 10701 10703 10707 10710 10712 10715 10718 10720 10723 10726 10727 10729 10731 10733 10735 10736 10737 10737 10738 10738 10738 10738 10739 10739 10740 10740 10740 10740 10740 10740 10739 10739 10739 10739 10738 10737 10736 10735 10734 10734 10734 10733 10733 10732 10731 10731 10731 10730 10728 10727 10726 10726 10725 10723 10723 10722 10721 10720 10719 10718 10718 10717 10716 10715 10714 10714 10714 10714 10714 10714 10714 10713 10712 10712 10711 10709 10709 10708 10707 10705 10704
10668 10672 10676 10681 10686 10690 10692 10694 10697 10701 10704 10707 10710 10712 10716 10720 10720 10721 10725 10728 10730 10733 10734 10734 10734 10735 10736 10736 10736 10737 10738 10738 10739 10739 10739 10739 10740 10740 10739 10739 10739 10739 10739 10738 10737 10736 10736 10736 10735 10735 10734 10734 10733 10733 10732 10731 10730 10729 10728 10727 10726 10725 10724 10723 10722 10722 10721 10720 10720 10719 10718 10717 10716 10715 10715 10716 10715 10715 10714 10714 10713 10712 10711 10710 10710 10708 10707 10705
10659 10664 10668 10673 10679 10683 10684 10686 10690 10695 10698 10702 10704 10707 10713 10714 10713 10716 10721 10724 10727 10729 10730 10731 10732 10732 10733 10734 10735 10736 10736 10737 10737 10738 10738 10739 10739 10740 10740 10740 10740 10739 10739 10739 10738 10737 10737 10738 10738 10737 10736 10736 10735 10734 10734 10734 10732 10731 10730 10729 10728 10727 10726 10725 10725 10724 10724 10723 10722 10721 10720 10719 10718 10718 10718 10717 10717 10717 10716 10716 10715 10714 10713 10712 10711 10710 10708 10706
10650 10655 10659 10665 10671 10674 10676 10679 10684 10688 10692 10696 10699 10704 10708 10706 10706 10712 10718 10720 10724 10725 10726 10728 10729 10730 10731 10732 10733 10734 10734 10735 10736 10736 10737 10737 10738 10739 10740 10740 10740 10740 10740 10739 10739 10739 10739 10739 10739 10738 10738 10737 10736 10735 10735 10735 10734 10733 10732 10731 10730 10729 10728 10727 10727 10726 10726 10725 10724 10723 10722 10722 10721 10720 10720 10719 10719 10719 10718 10717 10716 10715 10714 10713 10712 10711 10709 10707
10641 10646 10650 10657 10663 10665 10667 10672 10677 10681 10686 10690 10694 10699 10700 10697 10701 10709 10713 10716 10719 10721 10722 10724 10725 10727 10729 10729 10731 10732 10733 10734 10734 10735 10735 10736 10737 10738 10739 10740 10740 10740 10740 10740 10740 10739 10739 10739 10740 10739 10739 10738 10737 10736 10736 10736 10735 10735 10734 10733 10732 10731 10730 10729 10729 10728 10727 10726 10725 10725 10724 10723 10723 10722 10721 10721 10721 10720 10720 10718 10717 10716 10715 10714 10713 10712 10710 10708
10631 10636 10641 10648 10653 10656 10660 10665 10670 10674 10679 10685 10690 10693 10691 10691 10697 10704 10707 10711 10714 10716 10718 10720 10722 10724 10726 10727 10729 10730 10731 10732 10733 10733 10734 10735 10735 10736 10738 10739 10739 10739 10739 10740 10739 10739 10739 10740 10740 10740 10739 10738 10738 10737 10736 10736 10736 10735 10734 10734 10733 10732 10732 10731 10730 10729 10728 10727 10727 10726 10725 10725 10724 10724 10723 10722 10722 10721 10721 10719 10718 10717 10715 10714 10714 10713 10710 10708
10620 10626 10631 10637 10644 10648 10652 10657 10662 10666 10672 10679 10684 10685 10684 10686 10691 10697 10702 10706 10709 10712 10714 10716 10719 10721 10722 10724 10726 10727 10729 10730 10730 10731 10732 10733 10734 10735 10736 10737 10738 10739 10739 10739 10739 10739 10739 10739 10740 10740 10739 10739 10738 10738 10737 10736 10736 10735 10735 10735 10734 10733 10733 10732 10731 10731 10729 10728 10728 10727 10727 10726 10726 10725 10724 10723 10722 10722 10721 10720 10719 10718 10716 10715 10714 10713 10711 10709
10609 10616 10622 10627 10634 10639 10644 10649 10654 10659 10665 10673 10676 10677 10678 10679 10684 10692 10697 10701 10704 10707 10709 10712 10715 10717 10718 10720 10722 10724 10726 10727 10728 10729 10730 10731 10732 10733 10734 10736 10737 10737 10738 10738 10739 10739 10739 10739 10740 10740 10740 10739 10739 10738 10737 10736 10736 10736 10735 10735 10735 10734 10733 10732 10732 10731 10730 10730 10729 10728 10728 10727 10726 10726 10725 10724 10723 10723 10722 10721 10720 10719 10717 10715 10714 10713 10712 10710
10597 10605 10611 10617 10623 10630 10635 10640 10646 10652 10658 10665 10668 10670 10671 10672 10678 10686 10691 10695 10699 10702 10704 10707 10710 10712 10714 10716 10718 10721 10722 10724 10726 10726 10727 10729 10730 10731 10732 10733 10734 10735 10736 10737 10738 10738 10738 10738 10739 10739 10740 10740 10739 10738 10738 10737 10736 10736 10735 10735 10735 10735 10733 10733 10732 10731 10730 10730 10729 10729 10728 10728 10727 10726 10726 10725 10724 10724 10723 10722 10721 10719 10717 10716 10715 10713 10712 10710
10586 10594 10601 10606 10612 10619 10627 10632 10637 10644 10651 10656 10660 10662 10663 10666 10673 10680 10684 10689 10694 10696 10699 10702 10704 10707 10710 10712 10714 10717 10719 10721 10723 10724 10725 10726 10727 10728 10729 10730 10732 10733 10734 10735 10736 10737 10737 10737 10738 10738 10739 10739 10739 10738 10738 10737 10737 10736 10735 10734 10734 10734 10733 10732 10732 10731 10730 10730 10729 10729 10728 10728 10728 10727 10726 10726 10725 10725 10724 10722 10721 10719 10717 10716 10715 10714 10713 10711
10576 10583 10587 10593 10600 10609 10618 10624 10629 10636 10643 10647 10651 10654 10657 10661 10667 10673 10678 10683 10687 10690 10693 10696 10699 10703 10705 10707 10710 10713 10715 10718 10719 10721 10722 10723 10724 10725 10726 10728 10729 10730 10732 10733 10734 10735 10736 10736 10736 10737 10738 10738 10738 10738 10738 10737 10737 10736 10735 10734 10733 10733 10732 10732 10732 10731 10731 10730 10730 10729 10728 10728 10728 10727 10726 10726 10725 10725 10724 10722 10720 10718 10717 10717 10716 10715 10713 10712
10565 10569 10572 10581 10590 10599 10609 10615 10620 10627 10633 10637 10641 10646 10651 10655 10660 10666 10673 10677 10681 10685 10688 10691 10694 10697 10700 10702 10706 10709 10711 10713 10716 10717 10719 10720 10721 10722 10724 10725 10727 10728 10729 10731 10732 10733 10734 10734 10735 10735 10736 10737 10737 10737 10737 10737 10736 10736 10736 10735 10734 10733 10732 10732 10732 10732 10731 10731 10730 10730 10729 10729 10728 10727 10727 10726 10725 10724 10723 10722 10720 10719 10718 10717 10717 10715 10714 10713
10551 10555 10559 10570 10581 10590 10600 10606 10611 10617 10622 10627 10634 10639 10644 10649 10653 10659 10666 10671 10675 10679 10682 10685 10687 10690 10694 10698 10702 10705 10707 10709 10711 10713 10715 10717 10718 10719 10721 10723 10724 10725 10726 10728 10730 10731 10732 10732 10733 10734 10735 10735 10735 10736 10736 10736 10736 10736 10736 10735 10735 10734 10733 10733 10733 10733 10733 10732 10731 10731 10730 10729 10728 10727 10727 10726 10725 10724 10723 10722 10721 10719 10719 10718 10717 10716 10715 10714
10537 10542 10547 10558 10571 10580 10590 10596 10601 10607 10613 10620 10627 10632 10637 10641 10645 10651 10659 10664 10668 10671 10674 10677 10681 10685 10689 10693 10697 10700 10702 10705 10707 10710 10712 10713 10714 10716 10718 10719 10721 10722 10723 10725 10727 10729 10730 10730 10731 10732 10733 10734 10734 10735 10735 10735 10735 10735 10735 10735 10735 10734 10733 10733 10733 10733 10733 10732 10732 10731 10730 10730 10729 10727 10727 10726 10725 10724 10723 10722 10721 10719 10719 10718 10718 10717 10715 10714
10523 10529 10534 10547 10559 10569 10579 10587 10593 10599 10605 10612 10620 10624 10629 10633 10637 10643 10650 10655 10660 10665 10668 10672 10676 10680 10684 10688 10692 10695 10698 10700 10703 10706 10708 10709 10711 10713 10715 10716 10717 10719 10721 10723 10725 10726 10727 10728 10729 10730 10731 10732 10733 10734 10734 10734 10734 10734 10734 10734 10734 10734 10733 10733 10733 10732 10732 10732 10731 10731 10730 10729 10729 10728 10727 10726 10725 10724 10723 10721 10720 10719 10719 10718 10718 10717 10715 10714
10508 10515 10523 10534 10547 10558 10568 10578 10585 10590 10596 10604 10612 10617 10621 10626 10630 10635 10641 10647 10654 10660 10663 10666 10671 10676 10680 10685 10688 10690 10693 10696 10699 10702 10704 10705 10708 10710 10711 10712 10714 10716 10718 10720 10721 10723 10724 10725 10726 10727 10729 10730 10731 10732 10733 10733 10733 10733 10733 10733 10733 10733 10733 10733 10732 10732 10731 10731 10730 10730 10730 10729 10728 10727 10727 10726 10725 10724 10723 10721 10720 10719 10718 10718 10717 10715 10714 10713
10495 10502 10510 10521 10535 10548 10559 10569 10576 10581 10588 10596 10603 10608 10614 10619 10621 10626 10632 10639 10647 10654 10657 10661 10667 10672 10675 10679 10683 10685 10688 10691 10694 10697 10699 10701 10704 10706 10708 10709 10711 10713 10715 10716 10717 10719 10721 10722 10723 10725 10727 10728 10729 10730 10731 10731 10732 10732 10732 10733 10732 10732 10732 10732 10731 10731 10730 10730 10730 10729 10729 10728 10728 10727 10726 10726 10725 10724 10723 10721 10720 10719 10718 10717 10716 10714 10713 10712
10482 10490 10498 10508 10523 10537 10547 10557 10565 10571 10578 10586 10594 10599 10605 10609 10612 10617 10623 10630 10640 10648 10651 10655 10661 10664 10668 10673 10676 10678 10681 10685 10688 10692 10694 10696 10699 10702 10704 10706 10708 10710 10712 10713 10714 10715 10717 10719 10721 10722 10724 10726 10727 10728 10729 10729 10730 10730 10731 10731 10731 10731 10731 10731 10730 10729 10729 10729 10728 10728 10727 10727 10727 10726 10726 10725 10724 10723 10723 10722 10720 10719 10718 10717 10715 10714 10712 10711
10469 10477 10486 10497 10511 10523 10533 10544 10554 10561 10568 10576 10583 10588 10594 10598 10602 10609 10615 10621 10632 10641 10645 10649 10654 10657 10662 10666 10668 10671 10676 10681 10684 10688 10691 10693 10695 10698 10701 10703 10705 10706 10708 10709 10710 10711 10713 10716 10718 10719 10721 10723 10724 10725 10726 10727 10728 10728 10729 10729 10729 10730 10729 10729 10729 10728 10728 10727 10727 10726 10726 10726 10725 10725 10725 10724 10723 10722 10722 10721 10720 10719 10718 10717 10715 10714 10712 10711
10457 10465 10474 10485 10497 10509 10521 10532 10543 10551 10557 10564 10571 10576 10581 10587 10593 10601 10606 10612 10624 10634 10638 10642 10647 10650 10655 10658 10661 10667 10672 10676 10680 10684 10687 10690 10692 10695 10698 10700 10702 10703 10704 10706 10707 10708 10711 10713 10715 10716 10718 10720 10721 10723 10724 10725 10726 10727 10727 10727 10727 10727 10727 10727 10727 10727 10726 10726 10725 10725 10725 10724 10724 10723 10723 10723 10722 10721 10720 10720 10719 10718 10717 10716 10715 10713 10712 10710
10445 10454 10463 10474 10484 10496 10508 10520 10531 10540 10545 10551 10559 10566 10573 10580 10587 10594 10598 10603 10615 10626 10631 10636 10640 10643 10648 10653 10657 10663 10668 10671 10675 10678 10682 10685 10688 10690 10693 10696 10698 10699 10701 10703 10704 10705 10708 10710 10712 10714 10715 10717 10718 10720 10721 10722 10724 10725 10725 10724 10724 10725 10725 10725 10725 10725 10725 10724 10723 10723 10723 10723 10723 10722 10722 10721 10720 10720 10719 10718 10717 10716 10716 10715 10714 10712 10711 10710